Wind_Speed
16 16 17 17 18 18 19 19 20 20 20 21 21 22 22 22 22 22 23 23 24 25 26 26 26 27 27 27 28 28 28 29 30 30 31 31 32 32
16 17 17 17 18 19 19 19 20 21 21 22 23 24 24 24 23 23 23 24 25 25 26 26 27 28 28 29 29 29 30 31 32 32 33 33 32 32
16 16 17 18 18 19 19 20 21 22 23 23 25 24 24 24 24 25 25 26 26 27 27 27 28 29 30 30 30 31 31 32 33 33 33 33 33 33
17 17 18 18 19 20 20 21 22 22 23 23 24 24 25 25 26 27 27 28 28 28 29 29 30 30 30 31 31 31 31 32 33 33 33 33 33 34
18 19 19 19 20 21 22 22 23 24 24 25 25 26 26 27 29 29 29 30 30 31 31 31 30 31 31 32 32 32 32 33 33 33 33 33 33 34
19 20 21 21 22 22 23 23 24 25 25 26 27 27 28 29 31 31 31 31 31 31 32 31 31 32 32 32 33 33 33 33 33 33 33 33 33 33
21 21 22 23 23 24 24 25 26 26 27 28 28 29 30 31 31 31 31 31 31 32 31 31 31 32 33 33 33 33 33 33 33 33 33 33 33 34
23 23 24 25 25 25 26 27 27 28 28 29 29 30 30 31 30 31 31 31 31 31 32 32 32 33 33 34 34 33 33 34 34 34 34 34 34 35
23 24 24 25 26 26 27 28 28 29 29 30 31 31 31 31 31 31 31 31 32 32 33 33 33 33 33 33 34 34 34 34 34 34 35 34 34 34
24 24 24 26 26 27 27 28 28 30 30 30 30 30 31 31 30 31 31 32 33 33 33 34 34 34 34 34 34 34 34 33 34 34 34 34 33 33
25 25 26 26 27 28 28 29 30 30 31 31 31 31 31 31 32 32 32 32 33 33 33 34 34 34 34 34 34 34 33 34 34 33 33 33 33 33
26 27 27 27 28 29 30 30 31 31 31 32 31 30 31 31 31 32 32 33 33 33 32 33 34 34 34 34 33 33 34 34 33 32 32 32 32 32
28 28 29 29 29 30 31 32 32 32 32 32 32 32 31 31 32 32 33 33 33 33 33 34 34 34 34 33 33 33 33 32 32 32 32 32 32 31
29 30 30 31 31 32 32 33 33 34 34 34 33 33 32 32 32 33 33 33 32 33 34 34 34 34 34 34 33 33 33 32 32 32 32 32 31 30
31 31 31 32 32 33 33 34 34 34 34 34 33 33 33 33 33 32 33 33 33 33 34 34 34 34 34 34 34 33 33 32 32 32 31 31 30 29
31 32 32 32 32 32 33 34 34 34 34 34 34 34 34 34 34 33 33 33 33 34 34 35 34 34 34 34 34 33 32 32 31 30 30 30 29 28
32 33 33 33 33 34 34 34 35 35 35 34 34 34 34 34 34 34 34 34 35 35 34 34 34 34 33 33 33 32 32 31 30 29 29 28 28 27
33 33 33 33 34 35 35 35 36 35 34 34 34 34 34 35 35 34 34 34 34 33 33 33 33 32 32 32 32 31 30 29 29 28 27 27 27 27
34 34 34 35 35 35 35 35 35 35 34 34 34 33 33 33 33 33 33 33 33 33 32 32 32 32 32 32 31 30 29 28 28 28 28 27 27 27
35 35 35 35 36 36 36 35 35 34 33 33 33 33 33 33 33 33 33 33 33 32 32 31 31 31 31 30 29 29 29 28 28 28 28 27 27 27
35 35 35 35 35 35 35 34 33 33 32 32 32 33 33 33 33 33 33 33 32 32 31 31 31 31 31 30 29 28 28 28 28 27 27 27 27 28
35 35 35 35 35 35 34 33 33 33 33 33 33 33 33 33 33 33 33 32 32 32 31 31 31 30 30 29 29 28 28 28 28 28 28 28 28 28
35 35 34 34 34 34 33 33 34 34 33 33 33 33 33 32 32 32 32 32 32 31 31 30 30 30 30 30 29 29 29 28 29 29 28 29 29 29
Wind_Direction
282 283 283 281 281 281 281 283 284 285 286 287 289 289 289 289 290 292 291 291 293 292 291 290 291 291 291 291 290 287 287 287 286 285 284 284 283 283
284 285 285 285 283 282 282 284 285 286 287 289 289 289 289 289 290 291 292 292 292 294 293 292 292 292 292 291 291 289 288 288 287 287 286 286 285 284
287 288 289 289 290 290 288 288 287 287 288 288 289 290 289 289 290 290 291 293 294 294 293 294 294 293 292 292 291 290 289 289 288 288 287 286 285 285
288 289 291 292 293 292 291 291 290 290 290 291 291 291 291 291 291 292 293 295 295 295 293 293 294 293 293 293 292 291 291 292 291 289 289 287 286 285
289 291 293 294 294 293 292 292 292 292 292 292 292 292 293 291 292 292 292 294 294 294 293 292 293 293 294 294 293 292 292 292 292 291 290 288 288 287
289 291 293 294 294 294 295 295 294 295 294 292 292 291 292 291 292 292 291 293 294 295 294 292 293 293 294 294 293 293 293 293 293 292 291 290 289 288
291 292 294 294 295 294 294 295 295 295 294 293 292 292 293 292 292 292 293 294 294 295 294 293 293 294 295 295 294 294 294 294 293 292 293 292 290 289
291 291 292 292 293 294 295 295 294 295 294 294 294 294 295 293 293 294 293 294 295 295 295 295 294 294 295 295 295 295 295 295 294 293 293 292 291 290
292 292 292 294 294 294 294 294 295 295 296 295 294 294 295 295 294 295 294 294 296 297 297 296 295 295 295 296 295 295 294 293 293 292 292 292 291 291
295 294 295 297 298 296 295 295 296 296 297 297 298 297 296 296 297 297 296 297 297 298 297 296 296 295 296 296 296 296 295 294 294 294 294 293 292 291
300 299 298 298 299 298 296 296 296 297 298 298 298 298 297 297 297 297 297 297 297 296 296 297 297 296 296 296 296 297 296 296 295 294 293 293 293 292
299 298 297 297 297 297 297 298 298 298 299 299 299 298 298 297 297 297 296 296 296 296 296 296 297 297 296 296 297 297 298 298 297 296 295 294 294 293
299 298 297 297 298 299 299 299 298 298 299 299 298 297 297 297 298 298 297 296 296 296 296 297 297 297 297 297 298 298 298 298 297 296 295 294 294 293
299 299 298 297 298 298 299 298 297 298 299 299 299 298 296 297 298 298 298 297 296 296 296 296 296 297 298 298 298 298 298 297 297 297 297 295 294 293
298 299 299 298 298 299 299 299 299 299 299 299 297 297 298 298 298 297 297 296 296 296 296 297 297 297 297 297 297 298 298 297 297 297 296 296 296 295
299 299 299 299 299 300 300 300 300 300 299 299 298 298 298 298 298 297 297 296 296 297 297 297 297 296 297 298 298 298 297 297 297 296 295 295 294 294
300 300 299 299 299 300 300 300 300 300 300 299 299 299 299 298 298 298 298 297 297 298 297 297 297 296 296 297 297 297 297 297 296 295 294 294 293 293
300 300 300 300 300 300 300 300 300 299 299 299 299 299 299 299 299 298 298 298 298 298 297 297 297 296 296 297 297 297 296 296 296 295 294 294 293 292
299 300 301 302 302 302 302 301 299 298 298 299 299 299 299 299 299 299 299 299 299 299 298 298 297 297 297 297 296 296 295 294 294 295 295 294 294 293
300 301 302 302 302 303 302 301 299 299 298 298 299 300 300 299 299 299 299 299 299 299 300 300 299 299 298 297 296 295 294 294 294 294 294 294 293 293
301 301 301 301 302 302 302 300 299 299 298 299 300 300 299 298 298 299 299 299 299 298 299 300 300 299 298 296 295 295 295 294 294 294 293 293 293 292
301 302 303 303 303 302 301 299 299 300 299 299 300 300 299 299 299 300 300 300 299 299 299 299 299 299 297 295 295 294 294 293 293 292 291 291 291 292
302 303 303 303 303 303 301 300 300 301 301 301 301 301 301 300 300 301 300 300 300 299 299 299 298 297 297 296 295 295 294 293 293 293 292 292 293 293
Height
5883 5883 5882 5881 5881 5880 5880 5879 5879 5878 5877 5875 5874 5872 5871 5870 5869 5867 5866 5864 5863 5861 5859 5857 5856 5854 5852 5850 5848 5846 5845 5843 5841 5840 5838 5837 5835 5833
5880 5879 5878 5877 5877 5876 5875 5874 5873 5873 5872 5870 5868 5867 5865 5864 5863 5861 5860 5858 5856 5855 5852 5851 5849 5847 5845 5843 5841 5838 5837 5835 5833 5831 5829 5828 5826 5824
5876 5875 5874 5873 5872 5871 5870 5869 5868 5867 5866 5864 5862 5861 5860 5858 5857 5855 5853 5852 5850 5848 5846 5843 5841 5839 5837 5835 5833 5830 5828 5826 5824 5822 5820 5818 5816 5814
5872 5871 5870 5869 5868 5867 5866 5864 5863 5862 5860 5859 5857 5855 5853 5852 5850 5848 5846 5845 5842 5840 5838 5836 5833 5831 5829 5827 5824 5822 5820 5817 5815 5813 5811 5808 5806 5804
5868 5867 5866 5865 5863 5862 5861 5859 5858 5856 5854 5853 5851 5849 5847 5845 5843 5841 5839 5837 5835 5832 5830 5827 5825 5823 5820 5818 5816 5813 5811 5808 5806 5804 5801 5799 5796 5794
5863 5862 5861 5860 5858 5857 5855 5853 5851 5850 5848 5846 5844 5842 5840 5838 5836 5834 5831 5829 5827 5824 5822 5819 5817 5814 5812 5809 5807 5804 5802 5799 5796 5794 5791 5789 5787 5784
5859 5857 5856 5855 5853 5851 5849 5847 5845 5843 5841 5839 5837 5835 5833 5830 5828 5826 5823 5821 5818 5816 5813 5811 5808 5806 5803 5800 5798 5795 5792 5789 5787 5784 5782 5779 5777 5774
5853 5852 5851 5849 5847 5845 5843 5841 5839 5837 5834 5832 5829 5827 5825 5822 5820 5817 5815 5812 5810 5808 5805 5802 5800 5797 5794 5791 5788 5785 5782 5780 5777 5774 5772 5769 5767 5765
5847 5846 5844 5842 5840 5838 5836 5834 5832 5829 5827 5824 5822 5819 5817 5814 5811 5809 5806 5804 5801 5798 5796 5793 5791 5788 5785 5782 5779 5776 5773 5770 5767 5764 5762 5759 5757 5754
5841 5840 5838 5836 5834 5832 5829 5827 5825 5822 5819 5817 5814 5811 5808 5806 5803 5801 5798 5795 5793 5790 5787 5784 5781 5778 5776 5773 5769 5766 5763 5760 5757 5755 5752 5749 5747 5744
5836 5834 5832 5829 5827 5825 5823 5820 5818 5815 5812 5809 5806 5803 5800 5797 5795 5792 5789 5787 5784 5781 5778 5775 5772 5769 5766 5763 5760 5757 5754 5751 5748 5745 5742 5739 5737 5734
5830 5827 5825 5822 5820 5818 5815 5812 5810 5807 5804 5802 5799 5796 5793 5789 5786 5784 5781 5778 5775 5772 5769 5766 5763 5760 5757 5754 5751 5747 5744 5741 5738 5735 5732 5730 5727 5724
5823 5821 5818 5815 5813 5810 5807 5805 5802 5799 5796 5793 5791 5788 5785 5781 5778 5775 5772 5769 5766 5763 5760 5757 5754 5750 5747 5745 5742 5738 5735 5732 5729 5726 5723 5720 5718 5715
5816 5813 5810 5808 5805 5802 5799 5796 5793 5790 5787 5785 5782 5779 5776 5772 5769 5766 5763 5760 5757 5754 5750 5747 5744 5741 5738 5735 5732 5729 5726 5723 5720 5717 5714 5711 5708 5705
5808 5805 5803 5800 5797 5794 5791 5788 5785 5782 5779 5776 5773 5770 5767 5764 5760 5757 5754 5751 5748 5744 5741 5738 5735 5732 5729 5726 5723 5720 5717 5713 5710 5707 5704 5702 5699 5696
5800 5797 5794 5791 5788 5785 5782 5779 5776 5773 5770 5767 5763 5760 5757 5754 5751 5748 5745 5742 5738 5735 5732 5728 5725 5723 5719 5716 5713 5710 5707 5704 5701 5698 5695 5693 5690 5688
5791 5789 5786 5783 5780 5777 5773 5770 5767 5764 5761 5757 5754 5751 5748 5745 5741 5738 5735 5732 5729 5725 5722 5719 5716 5713 5710 5707 5703 5700 5698 5695 5692 5689 5687 5684 5682 5679
5783 5780 5777 5774 5771 5767 5764 5761 5757 5754 5751 5748 5745 5741 5738 5735 5732 5728 5725 5722 5719 5716 5712 5709 5706 5703 5700 5697 5694 5691 5688 5686 5683 5681 5678 5676 5674 5671
5774 5771 5768 5764 5761 5758 5754 5751 5747 5744 5741 5738 5735 5731 5728 5725 5722 5719 5715 5712 5709 5706 5703 5700 5696 5694 5691 5688 5685 5682 5680 5677 5675 5672 5670 5668 5666 5664
5765 5762 5758 5755 5752 5748 5745 5741 5738 5734 5731 5728 5725 5722 5719 5716 5712 5709 5706 5702 5699 5696 5693 5690 5687 5684 5682 5679 5676 5674 5671 5668 5666 5664 5661 5659 5657 5655
5756 5753 5749 5746 5742 5739 5735 5731 5728 5725 5722 5718 5715 5712 5709 5706 5703 5700 5696 5693 5690 5687 5684 5681 5678 5675 5672 5670 5667 5665 5662 5660 5657 5655 5653 5651 5649 5647
5747 5743 5740 5736 5733 5730 5726 5722 5719 5716 5713 5709 5706 5703 5700 5696 5693 5690 5687 5684 5680 5677 5674 5672 5669 5666 5663 5661 5658 5656 5654 5651 5649 5646 5644 5642 5640 5638
5737 5734 5731 5727 5724 5720 5717 5714 5710 5707 5703 5700 5697 5693 5690 5687 5684 5681 5677 5674 5671 5668 5665 5662 5659 5656 5654 5651 5649 5647 5645 5642 5640 5637 5635 5633 5631 5629